Weather in Turkmenabad

Turkmenistan     39°03′16″N   63°34′50″E
temp.,
°C
wind,
m/s
gust,
m/s
humid.,
%
clouds,
%
prec.,
mm/h
press.,
hPa
HPBL,
m
12 april, mon
mon1223:00+18ne810230 0.0 1019660
02:00+14nne811300 0.0 1019489
05:00+13nne7123821 0.0 1019438
08:00+13ne794020 0.0 1020419
11:00+18nne67193 0.0 1020691
14:00+23nne66122 0.0 10181181
17:00+24nne661495 0.0 10171375
20:00+22nne6618100 0.0 10181208
13 april, tue
tue1323:00+21nne462194 0.0 1019404
02:00+19nne332532 0.0 101881
05:00+17nne23282 0.0 101947
08:00+17nne45280 0.0 1020214
11:00+21nne33180 0.0 10211009
14:00+23n22140 0.0 10191636
17:00+25n43110 0.0 10182024
20:00+23n44150 0.0 1017502
14 april, wed
wed1423:00+21n341920 0.0 1017123
02:00+19nne45230 0.0 1016114
05:00+17ne34263 0.0 101671
08:00+18nne34260 0.0 1016165
11:00+22n11190 0.0 1016860
14:00+24wnw33130 0.0 10141810
17:00+25nnw44120 0.0 10121804
20:00+24n44155 0.0 1013476
15 april, thu
thu1523:00+21nne4622100 0.0 1013208
02:00+19nne5729100 0.0 1013221
05:00+18ne473199 0.0 1012196
08:00+18nne5729100 0.0 1013333
11:00+22nne442192 0.0 1014907
14:00+24n3314100 0.0 10131152
17:00+25n341234 0.0 10121514
20:00+24n451598 0.0 1012313
16 april, fri
fri1623:00+22n33180 0.0 101347
02:00+20ne11210 0.0 101211
05:00+19se33210 0.0 101319
08:00+21s33205 0.0 1014119
11:00+25s43150 0.0 1014894
14:00+27s331436 0.0 10131975
17:00+28ssw33147 0.0 10122672
20:00+27se33154 0.0 1011396